Location: Bla�im
(49.9166°N, 13.0477°E)
Time: 19:39:16
(UTC+00:00)

Daily predictions for brighter satellites

Satellite Brightness Start Highest point End
(mag) Time Altitude Azimuth Time Altitude Azimuth Time Altitude Azimuth
ADEOS Rocket 3.7 15:38:32 10° NNE 15:46:05 63° E 15:53:48 10° S
Cosmos 2298 Rocket 4.2 15:43:01 10° NNW 15:48:11 50° ENE 15:53:20 10° SE
Cosmos 1818 3.8 15:43:19 10° NW 15:48:40 51° NE 15:53:59 10° ESE
NOAA 6 4.0 15:43:58 10° SSE 15:49:05 69° ENE 15:54:13 10° N
Cosmos 2150 Rocket 4.2 15:45:02 10° NNW 15:50:04 47° ENE 15:55:01 10° SE
Cosmos 2278 Rocket 2.4 15:45:29 10° NNW 15:51:04 54° NE 15:56:37 10° SE
Cosmos 2184 Rocket 4.1 15:44:43 10° N 15:51:06 64° ENE 15:57:25 10° SSE
Landsat 5 4.0 15:47:07 10° NNE 15:51:19 46° E 15:55:35 10° S
USA 215 4.2 15:46:03 10° ENE 15:51:45 31° SE 15:57:26 10° S
Cosmos 1862 3.8 15:50:08 10° N 15:53:56 38° ENE 15:57:42 10° SE
Cosmos 482 Debris 3.0 15:55:50 10° WNW 15:57:37 39° N 15:59:12 11° ENE
CZ-4 R/B 3.2 16:02:54 10° ENE 16:04:23 12° ENE 16:05:51 10° NE
Cosmos 2360 Rocket 3.0 15:59:29 10° SW 16:04:57 49° NW 16:10:26 10° NNE
Cosmos 921 Rocket 4.5 16:02:24 10° SW 16:06:36 37° WNW 16:10:51 10° N
Cosmos 1125 Rocket 3.7 16:02:57 10° NNW 16:08:00 48° ENE 16:13:01 10° SE
Cosmos 1633 4.4 16:05:00 10° NNW 16:08:15 34° W 16:11:31 10° SSW
Cosmos 2208 Rocket 4.1 16:04:02 10° S 16:09:14 66° ESE 16:14:33 10° NNE
Cosmos 44 4.4 16:08:02 10° NNW 16:12:29 28° NNE 16:16:57 11° E
Cosmos 2219 Rocket 2.2 16:08:06 10° SSW 16:13:46 86° ESE 16:19:27 10° NNE
Cosmos 1500 Rocket 3.5 16:11:24 10° N 16:15:48 75° E 16:20:12 10° SSE
Cosmos 2221 2.5 16:11:46 10° S 16:16:06 76° E 16:20:27 10° NNE
CZ-4B R/B 3.1 16:11:21 10° SSE 16:16:42 77° ENE 16:22:01 10° NNW
Abrixas rocket 3.3 16:14:37 10° W 16:17:10 34° SSW 16:19:44 10° SE
Cosmos 1939 Rocket 3.7 16:15:21 10° ESE 16:18:36 26° ENE 16:21:53 10° N
ERS-2 3.4 16:16:18 11° NE 16:19:02 23° E 16:21:58 10° SSE
Cosmos 1980 Rocket 4.4 16:16:56 10° NW 16:19:14 12° NNW 16:21:34 10° N
SL-16 R/B 4.0 16:14:55 10° W 16:19:29 24° NW 16:24:04 10° NNE
FengYun 1-2 T 4.3 16:14:29 10° SE 16:19:54 57° ENE 16:25:18 10° N
SL-24 R/B - RUBIN 2 4.3 16:13:37 10° NW 16:20:07 76° NE 16:25:53 10° SE
NOAA 12 4.1 16:15:20 10° SSE 16:20:38 76° ENE 16:26:00 10° NNW
Cosmos 2237 Rocket 2.8 16:16:42 10° S 16:21:48 37° ESE 16:26:47 11° NE
ISS -2.1 16:21:32 10° SSW 16:24:14 23° SE 16:26:06 15° E
NOAA 11 4.2 16:19:26 10° SSE 16:24:44 58° ENE 16:30:04 10° N
Cosmos 1869 4.0 16:21:02 10° SSW 16:25:00 58° WNW 16:29:04 10° N
USA 267 3.3 16:20:01 10° ESE 16:26:30 72° NNE 16:32:59 10° WNW
GENESIS II 4.2 16:24:05 10° NW 16:28:03 61° NE 16:31:55 10° SE
CZ-4B R/B 2.1 16:26:56 17° NE 16:28:36 27° E 16:31:16 10° SSE
YAOGAN 1 3.9 16:26:42 12° E 16:29:16 19° ENE 16:32:20 10° NNE
Cosmos 2322 4.2 16:24:19 10° SW 16:29:54 59° NW 16:35:33 10° NNE
Cosmos 540 Rocket 3.9 16:25:12 10° SW 16:30:17 64° WNW 16:35:24 10° NNE
Cosmos 2369 Rocket 3.6 16:28:45 10° N 16:32:51 20° NE 16:34:50 17° ENE
Okean-O 3.6 16:30:50 10° ESE 16:34:26 25° ENE 16:38:03 10° N
AQUARIUS 4.2 16:30:28 10° SSE 16:34:57 88° WSW 16:39:30 10° NNW
CRYOSAT 2 4.3 16:31:04 10° N 16:35:58 69° E 16:40:50 10° S
Meteor 2-2 Rocket 4.4 16:30:22 10° SSW 16:36:22 87° WNW 16:42:17 10° NNE
COSMO-SKYMED 1 3.5 16:33:45 14° NE 16:36:44 27° E 16:40:26 10° SSE
Cosmos 1743 Rocket 4.0 16:33:16 10° NNW 16:37:44 66° W 16:42:09 10° S
Cosmos 841 Rocket 4.1 16:33:27 10° SW 16:38:37 58° WNW 16:43:46 10° NNE
CORIOLIS 4.2 16:33:53 10° SSE 16:39:17 86° WSW 16:44:46 10° NNW
Cosmos 1980 3.9 16:34:07 10° S 16:39:37 53° ESE 16:44:33 13° NE
Envisat 4.1 16:35:21 10° S 16:40:14 47° W 16:45:10 10° NNW
Cosmos 2366 rocket 4.4 16:37:15 10° N 16:43:00 37° ENE 16:48:40 10° SE
H-2A R/B 4.1 16:39:01 10° S 16:43:07 40° W 16:47:07 10° NNW
H-2A R/B 3.0 16:42:58 13° ESE 16:46:29 26° ENE 16:50:42 10° N
Okean O Rocket 2.0 16:43:08 10° S 16:47:27 65° WSW 16:51:49 10° NNW
Nadezhda 1 Rocket 4.0 16:41:52 10° S 16:48:13 89° E 16:54:39 10° N
Sich 1 3.0 16:45:16 10° N 16:49:41 67° ENE 16:54:02 10° SSE
Cosmos 405 Rocket 3.9 16:50:17 10° NNW 16:54:00 45° W 16:57:46 10° S
Cosmos 2292 4.4 16:51:22 10° SSW 16:54:26 79° W 16:58:06 10° N
Cosmos 1933 4.0 16:51:25 10° SSE 16:54:59 31° E 16:55:34 30° ENE
Cosmos 2297 3.9 16:51:27 10° NNW 16:57:00 50° NE 17:02:18 11° SE
Cosmos 2154 Rocket 4.4 16:50:50 10° NNW 16:57:07 68° W 17:03:24 10° S
Cosmos 1805 Rocket 3.7 16:53:34 10° NNW 16:58:03 79° W 17:02:30 10° S
Cosmos 962 Rocket 4.4 16:55:17 10° N 17:01:39 84° E 17:07:54 10° S
Cosmos 1666 Rocket 3.5 16:59:45 10° N 17:04:07 61° ENE 17:08:28 10° SSE
Cosmos 2341 Rocket 3.9 16:58:16 10° N 17:04:34 80° E 17:10:53 10° SSE
Cosmos 1943 Rocket 2.7 17:01:00 10° NNW 17:06:09 37° NE 17:07:56 30° E
SMAP 4.5 17:01:55 10° SSW 17:06:19 41° W 17:10:45 10° NNW
Helios 1A Rocket 3.1 17:03:21 11° SE 17:06:58 44° ENE 17:10:50 10° N
USA 281 3.1 17:00:49 10° SE 17:07:20 71° ENE 17:13:53 10° NNW
Cosmos 2322 Rocket 4.5 17:05:05 10° WNW 17:08:38 17° NNW 17:12:11 10° N
SL-16 R/B 2.8 17:03:57 10° SSE 17:08:55 33° ESE 17:09:55 31° E
Cosmos 1151 Rocket 3.4 17:05:57 10° SSE 17:09:51 38° E 17:09:51 38° E
Cosmos 1328 Rocket 4.3 17:08:44 10° SSE 17:11:47 32° ESE 17:11:47 32° ESE
MOS 1 Rocket 4.1 17:14:13 33° ENE 17:15:16 36° E 17:20:15 10° SSE
ARGOS 3.8 17:15:45 33° ENE 17:15:50 33° ENE 17:20:37 10° N
NOSS 0 Rocket 4.1 17:13:23 10° SW 17:19:38 75° WNW 17:24:41 17° NNE
Cosmos 2285 Rocket 3.9 17:13:52 10° NNW 17:20:17 66° ENE 17:26:37 10° SE
Cosmos 1606 2.7 17:16:28 10° SSW 17:20:21 81° W 17:23:04 19° N
Cosmos 389 Rocket 2.3 17:17:00 10° SSW 17:20:26 87° W 17:21:16 49° N
CREW DRAGON DEMO-1 DEB 2.9 17:17:43 10° WNW 17:20:29 71° W 17:20:29 71° W
CZ-2C R/B 2.9 17:16:06 10° SSE 17:21:11 62° ENE 17:26:03 10° N
Cosmos 836 Rocket 4.4 17:16:10 10° SSW 17:21:28 85° ESE 17:25:00 22° NNE
Cosmos 2333 Rocket 3.6 17:17:56 10° WSW 17:23:03 34° NW 17:28:10 10° NNE
H-2A R/B 3.8 17:20:08 10° N 17:23:45 29° WNW 17:27:24 10° SW
SKYMED 2 3.4 17:22:23 24° NNE 17:25:01 79° ESE 17:29:22 10° S
Meteor 1-20 Rocket 4.2 17:19:58 10° N 17:25:51 83° ENE 17:31:43 10° SSE
Cosmos 1867 3.8 17:21:23 10° SSW 17:26:34 48° ESE 17:27:32 43° E
COSMOS 2428 4.0 17:22:55 10° WSW 17:28:14 38° NW 17:33:12 12° NNE
SL-8 Rocket 4.0 17:26:16 10° N 17:32:30 86° W 17:38:46 10° S
Cosmos 864 Rocket 4.4 17:26:38 10° N 17:33:00 78° E 17:39:17 10° SSE
Cosmos 2278 Rocket 4.1 17:30:00 10° NW 17:34:53 30° WSW 17:39:45 10° SSW
USA 215 3.2 17:32:16 35° ENE 17:35:21 85° SSE 17:41:55 10° WSW
Lacrosse 5 rocket 3.7 17:33:09 10° S 17:33:15 10° S 17:33:15 10° S
Cosmos 1633 Rocket 3.1 17:31:22 10° NNW 17:35:47 80° W 17:40:08 10° S
EO 1 Delta rocket 4.1 17:32:23 10° NNE 17:37:29 76° E 17:43:45 10° S
Cosmos 2181 Rocket 3.9 17:31:54 10° S 17:38:21 84° E 17:44:47 10° N
CZ-4 R/B 1.2 17:37:52 53° SSE 17:38:44 89° WSW 17:42:46 10° NNW
SAR-Lupe-4 3.8 17:40:59 68° WNW 17:41:02 69° WNW 17:44:36 10° SSW
Cosmos 1959 Rocket 4.5 17:35:42 10° N 17:42:06 88° W 17:48:28 10° S
Meteor 1-25 Rocket 4.3 17:36:31 10° NNW 17:42:07 79° W 17:47:46 10° S
Cosmos 1821 Rocket 4.2 17:39:57 10° N 17:45:18 46° NE 17:45:18 46° NE
CZ-2D R/B 4.1 17:42:44 10° S 17:46:27 50° W 17:50:12 10° NNW
Cosmos 1241 Rocket 4.5 17:42:39 10° NW 17:49:19 82° NE 17:51:53 41° SE
ERS-2 3.8 17:50:53 21° NNW 17:52:38 32° WNW 17:55:56 10° SW
CSL-04 Debris 4.0 17:51:53 36° SSE 17:54:12 78° ENE 17:59:44 10° NNW
Cosmos 44 3.4 17:49:03 10° NW 17:54:19 84° SW 17:55:25 58° SSE
DEBRIS 3.6 17:42:16 10° W 17:55:36 83° SSW 17:56:22 65° ESE
SJ-11-01 4.4 17:57:31 64° N 17:57:31 64° N 18:01:34 10° NNW
SL-08 R/B 4.3 17:51:55 10° N 17:58:09 79° E 18:04:16 10° SSE
Cosmos 2219 Rocket 4.1 17:53:59 10° W 17:58:28 23° NW 18:02:22 12° N
CZ-4B R/B 3.8 18:00:04 17° NW 18:00:41 18° WNW 18:02:54 10° WSW
ISS -1.7 17:57:21 10° WSW 17:59:04 28° WSW 17:59:04 28° WSW
YAOGAN 1 3.1 18:03:52 43° SSW 18:04:58 58° WSW 18:09:16 10° NNW
Cosmos 2237 Rocket 3.1 18:00:26 10° SW 18:05:48 44° NW 18:08:38 26° N
USA 267 3.9 18:05:49 23° SSE 18:09:44 50° SW 18:16:03 10° WNW
Okean-O 3.7 18:06:29 10° S 18:10:42 44° W 18:14:58 10° NNW
COSMO-SKYMED 1 4.0 18:10:59 24° NNW 18:12:59 37° WNW 18:16:57 10° SW
Cosmos 2369 Rocket 2.6 18:12:11 10° NNW 18:16:39 54° N 18:16:39 54° N
CSL-04 Rocket 3.7 18:18:44 66° SSW 18:19:18 73° WSW 18:24:40 10° NNW
H-2A R/B 2.6 18:23:36 36° SSW 18:25:35 58° W 18:30:45 10° NNW
Cosmos 1943 Rocket 3.1 18:44:45 10° NW 18:49:30 44° W 18:49:30 44° W
SL-16 R/B 3.1 18:47:22 10° SW 18:51:51 45° W 18:51:51 45° W
ARGOS 4.4 18:57:17 38° WNW 18:57:17 38° WNW 19:01:09 10° NNW
USA 215 4.1 19:19:37 45° NW 19:19:37 45° NW 19:24:30 10° W
